Location: Newark
(47.5833°N, 8.1500°E)
Time: 21:26:15
(UTC+00:00)

Vanguard 2 Rocket - Pass Details

Date: 30 October 2020
Orbit: 553 x 3326 km, 32.9° (Epoch: 04 December)

Event Time Altitude Azimuth Distance (km) Brightness Sun altitude
Rises 18:43:31 0° 233° (SW) 2,723 10.0 -25.9°
Reaches altitude 10° 18:46:36 10° 205° (SSW) 1,928 8.8 -26.4°
Enters shadow 18:47:24 12° 194° (SSW) 1,836 8.5 -26.6°
